CMP479 KMCO-MPTO

Flight info

Callsign CMP479
Flight time N/A
Altitude 35000
Route FSHUN4 PLUMR FEMID Q79 MCLAW Y442 FUNDI UM335 ARNAL SEKMA OSUP2C
Aircraft B738/M-SDE3FGHIRWY/S

Departure

Time N/A
Airport Orlando International Airport (KMCO)

Arrival

Time 2026-05-03 22:45
Airport Tocumen International Airport (MPTO)
Time Latitude Longitude Altitude Speed Heading
2026-05-03 21:21 17.77276 -80.74239 34986 ft 454 kts 180°
2026-05-03 21:21 17.70973 -80.73944 34987 ft 453 kts 180°
2026-05-03 21:22 17.64717 -80.73652 34985 ft 453 kts 180°
2026-05-03 21:22 17.58428 -80.73357 34998 ft 452 kts 180°
2026-05-03 21:23 17.52141 -80.73063 34988 ft 452 kts 180°
2026-05-03 21:23 17.45850 -80.72768 34980 ft 452 kts 180°
2026-05-03 21:24 17.39561 -80.72474 34983 ft 452 kts 180°
2026-05-03 21:24 17.33281 -80.72180 34983 ft 451 kts 180°
2026-05-03 21:25 17.27004 -80.71886 34982 ft 451 kts 180°
2026-05-03 21:25 17.20767 -80.71595 34982 ft 452 kts 180°
2026-05-03 21:26 17.14498 -80.71301 34980 ft 451 kts 180°
2026-05-03 21:26 17.08223 -80.71009 34983 ft 451 kts 180°
2026-05-03 21:27 17.01944 -80.70717 34980 ft 451 kts 180°
2026-05-03 21:27 16.95684 -80.70424 34981 ft 451 kts 180°
2026-05-03 21:28 16.89415 -80.70133 34982 ft 450 kts 180°
2026-05-03 21:28 16.83204 -80.69846 34979 ft 450 kts 180°
2026-05-03 21:29 16.76943 -80.69553 34982 ft 450 kts 180°
2026-05-03 21:29 16.70698 -80.69263 34973 ft 449 kts 180°
2026-05-03 21:30 16.68589 -80.69165 34972 ft 449 kts 181°
2026-05-03 21:30 16.58089 -80.68680 34974 ft 448 kts 180°
2026-05-03 21:31 16.51849 -80.68389 34972 ft 449 kts 180°
2026-05-03 21:31 16.45612 -80.68098 34974 ft 449 kts 180°
2026-05-03 21:32 16.43542 -80.68002 34974 ft 448 kts 180°
2026-05-03 21:33 16.26443 -80.67211 34971 ft 448 kts 180°
2026-05-03 21:33 16.20216 -80.66923 34973 ft 448 kts 180°
2026-05-03 21:34 16.13996 -80.66636 34964 ft 447 kts 180°
2026-05-03 21:34 16.07778 -80.66349 34962 ft 447 kts 180°
2026-05-03 21:35 16.01569 -80.66061 34961 ft 447 kts 180°
2026-05-03 21:35 15.95354 -80.65776 34956 ft 447 kts 180°
2026-05-03 21:36 15.89185 -80.65492 34952 ft 447 kts 180°
2026-05-03 21:36 15.82976 -80.65205 34958 ft 446 kts 180°
2026-05-03 21:37 15.76769 -80.64919 34953 ft 446 kts 180°
2026-05-03 21:37 15.70566 -80.64634 34951 ft 446 kts 180°
2026-05-03 21:38 15.64363 -80.64350 34954 ft 446 kts 180°
2026-05-03 21:38 15.58167 -80.64067 34953 ft 445 kts 180°
2026-05-03 21:39 15.51975 -80.63781 34955 ft 445 kts 180°
2026-05-03 21:39 15.45818 -80.63496 34952 ft 445 kts 180°
2026-05-03 21:40 15.39623 -80.63214 34951 ft 446 kts 180°
2026-05-03 21:40 15.33427 -80.62930 34954 ft 446 kts 180°
2026-05-03 21:41 15.27219 -80.62645 34953 ft 446 kts 180°
2026-05-03 21:41 15.21022 -80.62362 34943 ft 446 kts 180°
2026-05-03 21:42 15.15856 -80.62125 34945 ft 446 kts 180°
2026-05-03 21:42 15.08645 -80.61795 34945 ft 446 kts 180°
2026-05-03 21:43 15.02435 -80.61512 34947 ft 447 kts 180°
2026-05-03 21:43 14.97283 -80.61060 34947 ft 448 kts 174°
2026-05-03 21:44 14.91127 -80.59995 34943 ft 449 kts 172°
2026-05-03 21:44 14.84977 -80.58863 34942 ft 449 kts 172°
2026-05-03 21:45 14.78818 -80.57768 34947 ft 449 kts 173°
2026-05-03 21:45 14.72671 -80.56701 34944 ft 448 kts 173°
2026-05-03 21:46 14.66508 -80.55644 34940 ft 448 kts 173°
2026-05-03 21:46 14.60360 -80.54592 34948 ft 448 kts 173°
2026-05-03 21:47 14.54251 -80.53546 34940 ft 448 kts 173°
2026-05-03 21:47 14.48099 -80.52493 34948 ft 448 kts 173°
2026-05-03 21:48 14.41949 -80.51441 34941 ft 447 kts 172°
2026-05-03 21:48 14.35805 -80.50389 34946 ft 447 kts 172°
2026-05-03 21:49 14.29668 -80.49340 34942 ft 447 kts 172°
2026-05-03 21:49 14.23575 -80.48298 34945 ft 447 kts 172°
2026-05-03 21:50 14.17445 -80.47251 34942 ft 447 kts 172°
2026-05-03 21:50 14.11305 -80.46202 34951 ft 447 kts 172°
2026-05-03 21:51 14.05171 -80.45154 34945 ft 447 kts 172°
2026-05-03 21:51 13.99035 -80.44109 34942 ft 447 kts 172°
2026-05-03 21:52 13.92931 -80.43070 34932 ft 448 kts 172°
2026-05-03 21:52 13.86783 -80.42022 34942 ft 448 kts 172°
2026-05-03 21:53 13.80633 -80.40974 34935 ft 448 kts 172°
2026-05-03 21:53 13.74476 -80.39925 34934 ft 448 kts 172°
2026-05-03 21:54 13.68324 -80.38879 34936 ft 448 kts 172°
2026-05-03 21:54 13.62171 -80.37833 34935 ft 448 kts 172°
2026-05-03 21:55 13.56012 -80.36787 34935 ft 448 kts 172°
2026-05-03 21:55 13.49886 -80.35747 34935 ft 448 kts 172°
2026-05-03 21:56 13.43732 -80.34702 34934 ft 448 kts 172°
2026-05-03 21:56 13.37571 -80.33657 34935 ft 448 kts 172°
2026-05-03 21:57 13.31413 -80.32612 34933 ft 448 kts 172°
2026-05-03 21:57 13.25252 -80.31569 34935 ft 448 kts 172°
2026-05-03 21:58 13.19096 -80.30527 34934 ft 449 kts 172°
2026-05-03 21:58 13.12934 -80.29484 34924 ft 449 kts 172°
2026-05-03 21:59 13.06805 -80.28446 34926 ft 449 kts 172°
2026-05-03 21:59 13.00629 -80.27402 34925 ft 450 kts 172°
2026-05-03 22:00 12.94447 -80.26357 34927 ft 450 kts 172°
2026-05-03 22:00 12.88267 -80.25314 34923 ft 450 kts 172°
2026-05-03 22:01 12.82082 -80.24271 34926 ft 451 kts 172°
2026-05-03 22:01 12.75888 -80.23224 34928 ft 451 kts 172°
2026-05-03 22:02 12.69681 -80.22177 34927 ft 452 kts 171°
2026-05-03 22:02 12.63465 -80.21128 34925 ft 453 kts 171°
2026-05-03 22:03 12.57278 -80.20085 34927 ft 454 kts 171°
2026-05-03 22:03 12.51042 -80.19036 34931 ft 454 kts 171°
2026-05-03 22:04 12.44794 -80.17984 34936 ft 455 kts 171°
2026-05-03 22:04 12.38543 -80.16931 34935 ft 456 kts 171°
2026-05-03 22:05 12.32282 -80.15877 34924 ft 456 kts 171°
2026-05-03 22:05 12.26020 -80.14824 34923 ft 456 kts 171°
2026-05-03 22:06 12.19797 -80.13779 34914 ft 456 kts 171°
2026-05-03 22:06 12.13537 -80.12727 34916 ft 456 kts 171°
2026-05-03 22:07 12.07281 -80.11677 34917 ft 456 kts 171°
2026-05-03 22:07 12.01026 -80.10628 34918 ft 455 kts 171°
2026-05-03 22:08 11.94775 -80.09581 34915 ft 455 kts 171°
2026-05-03 22:08 11.88522 -80.08532 34917 ft 455 kts 171°
2026-05-03 22:09 11.82313 -80.07491 34917 ft 455 kts 171°
2026-05-03 22:10 11.72942 -80.05920 34917 ft 455 kts 171°
2026-05-03 22:10 11.66694 -80.04875 34917 ft 455 kts 171°
2026-05-03 22:11 11.60445 -80.03830 34916 ft 455 kts 171°
2026-05-03 22:11 11.54199 -80.02786 34915 ft 455 kts 171°
2026-05-03 22:12 11.47966 -80.01651 34903 ft 455 kts 166°
2026-05-03 22:12 11.41933 -79.99818 34913 ft 455 kts 162°
2026-05-03 22:13 11.35921 -79.97768 34901 ft 456 kts 162°
2026-05-03 22:13 11.30378 -79.95927 34897 ft 456 kts 162°
2026-05-03 22:14 11.24324 -79.93976 34897 ft 456 kts 163°
2026-05-03 22:14 11.18263 -79.92047 34898 ft 456 kts 163°
2026-05-03 22:15 11.12205 -79.90122 34899 ft 456 kts 163°
2026-05-03 22:15 11.06143 -79.88193 34897 ft 457 kts 163°
2026-05-03 22:16 11.00071 -79.86259 34892 ft 457 kts 163°
2026-05-03 22:16 10.94038 -79.84340 34887 ft 457 kts 162°
2026-05-03 22:17 10.87969 -79.82410 34888 ft 457 kts 163°
2026-05-03 22:17 10.81898 -79.80481 34780 ft 459 kts 163°
2026-05-03 22:17 10.78850 -79.79512 34508 ft 459 kts 163°
2026-05-03 22:18 10.75807 -79.78546 34261 ft 457 kts 163°
2026-05-03 22:18 10.72772 -79.77582 34013 ft 458 kts 163°
2026-05-03 22:18 10.69725 -79.76613 33761 ft 459 kts 163°
2026-05-03 22:18 10.66678 -79.75644 33527 ft 460 kts 163°
2026-05-03 22:19 10.63613 -79.74672 33283 ft 461 kts 163°
2026-05-03 22:19 10.60551 -79.73701 33036 ft 461 kts 163°
2026-05-03 22:19 10.57486 -79.72728 32789 ft 462 kts 163°
2026-05-03 22:19 10.54412 -79.71753 32543 ft 462 kts 162°
2026-05-03 22:20 10.51382 -79.70791 32298 ft 463 kts 163°
2026-05-03 22:20 10.48308 -79.69817 32050 ft 463 kts 163°
2026-05-03 22:20 10.45237 -79.68845 31804 ft 462 kts 163°
2026-05-03 22:20 10.42164 -79.67874 31553 ft 462 kts 163°
2026-05-03 22:21 10.39096 -79.66906 31306 ft 462 kts 163°
2026-05-03 22:21 10.36037 -79.65941 30877 ft 458 kts 163°
2026-05-03 22:21 10.33012 -79.64987 30430 ft 453 kts 163°
2026-05-03 22:21 10.30012 -79.64041 29940 ft 449 kts 163°
2026-05-03 22:22 10.27045 -79.63105 29453 ft 445 kts 163°
2026-05-03 22:22 10.24098 -79.62174 28959 ft 441 kts 163°
2026-05-03 22:22 10.21184 -79.61255 28461 ft 437 kts 163°
2026-05-03 22:22 10.18290 -79.60343 27968 ft 433 kts 163°
2026-05-03 22:23 10.15426 -79.59440 27472 ft 429 kts 163°
2026-05-03 22:23 10.12591 -79.58546 26978 ft 426 kts 163°
2026-05-03 22:23 10.09772 -79.57658 26486 ft 422 kts 163°
2026-05-03 22:23 10.06974 -79.56776 25995 ft 418 kts 163°
2026-05-03 22:24 10.04211 -79.55905 25509 ft 415 kts 163°
2026-05-03 22:24 10.01463 -79.55040 25025 ft 411 kts 163°
2026-05-03 22:24 9.98743 -79.54183 24540 ft 407 kts 163°
2026-05-03 22:24 9.96056 -79.53336 24237 ft 399 kts 163°
2026-05-03 22:25 9.93476 -79.52523 24073 ft 388 kts 163°
2026-05-03 22:25 9.90934 -79.51723 23908 ft 378 kts 163°
2026-05-03 22:25 9.88458 -79.50945 23751 ft 368 kts 163°
2026-05-03 22:25 9.86051 -79.50175 23565 ft 359 kts 161°
2026-05-03 22:26 9.83734 -79.49244 23233 ft 356 kts 157°
2026-05-03 22:26 9.81484 -79.48213 22862 ft 353 kts 156°
2026-05-03 22:26 9.79267 -79.47167 22498 ft 351 kts 156°
2026-05-03 22:26 9.77057 -79.46131 22125 ft 349 kts 156°
2026-05-03 22:27 9.74857 -79.45112 21755 ft 346 kts 156°
2026-05-03 22:27 9.72670 -79.44111 21391 ft 344 kts 156°
2026-05-03 22:27 9.70488 -79.43119 21025 ft 342 kts 156°
2026-05-03 22:27 9.68328 -79.42139 20664 ft 340 kts 156°
2026-05-03 22:28 9.66174 -79.41164 20297 ft 338 kts 156°
2026-05-03 22:28 9.64036 -79.40197 19937 ft 336 kts 156°
2026-05-03 22:28 9.61907 -79.39234 19577 ft 334 kts 155°
2026-05-03 22:28 9.59790 -79.38278 19223 ft 332 kts 155°
2026-05-03 22:29 9.57691 -79.37323 18870 ft 330 kts 153°
2026-05-03 22:29 9.55723 -79.36150 18574 ft 326 kts 144°
2026-05-03 22:29 9.53899 -79.34803 18258 ft 323 kts 142°
2026-05-03 22:29 9.52123 -79.33423 17926 ft 321 kts 142°
2026-05-03 22:30 9.50381 -79.32068 17591 ft 319 kts 142°
2026-05-03 22:30 9.48616 -79.30710 17255 ft 317 kts 142°
2026-05-03 22:30 9.46854 -79.29371 16924 ft 315 kts 142°
2026-05-03 22:30 9.45099 -79.28049 16586 ft 314 kts 142°
2026-05-03 22:31 9.43348 -79.26737 16255 ft 312 kts 143°
2026-05-03 22:31 9.41607 -79.25434 15924 ft 310 kts 143°
2026-05-03 22:31 9.40437 -79.24560 15696 ft 309 kts 142°
2026-05-03 22:31 9.38966 -79.23464 15422 ft 307 kts 143°
2026-05-03 22:32 9.37245 -79.22180 15092 ft 306 kts 142°
2026-05-03 22:32 9.35541 -79.20909 14743 ft 304 kts 143°
2026-05-03 22:32 9.33843 -79.19643 14443 ft 302 kts 143°
2026-05-03 22:32 9.32149 -79.18383 14121 ft 301 kts 143°
2026-05-03 22:33 9.30466 -79.17128 13794 ft 300 kts 142°
2026-05-03 22:33 9.28790 -79.15881 13471 ft 299 kts 143°
2026-05-03 22:33 9.26942 -79.14947 13125 ft 300 kts 166°
2026-05-03 22:33 9.24865 -79.14869 12791 ft 302 kts 189°
2026-05-03 22:34 9.22876 -79.15601 12432 ft 309 kts 208°
2026-05-03 22:34 9.21059 -79.16751 12062 ft 314 kts 212°
2026-05-03 22:34 9.19246 -79.17998 11650 ft 316 kts 213°
2026-05-03 22:34 9.17409 -79.19275 11245 ft 317 kts 213°
2026-05-03 22:35 9.15611 -79.20512 10852 ft 317 kts 213°
2026-05-03 22:35 9.13781 -79.21758 10451 ft 317 kts 213°
2026-05-03 22:35 9.11943 -79.23000 10067 ft 318 kts 213°
2026-05-03 22:35 9.10114 -79.24229 9922 ft 309 kts 213°
2026-05-03 22:36 9.08361 -79.25404 9886 ft 297 kts 213°
2026-05-03 22:36 9.06670 -79.26536 9611 ft 289 kts 213°
2026-05-03 22:36 9.04994 -79.27657 9141 ft 289 kts 213°
2026-05-03 22:36 9.03308 -79.28784 8679 ft 289 kts 213°
2026-05-03 22:37 9.01624 -79.29874 8257 ft 287 kts 210°
2026-05-03 22:37 8.99882 -79.30850 7846 ft 284 kts 208°
2026-05-03 22:37 8.98169 -79.31769 7461 ft 281 kts 208°
2026-05-03 22:37 8.96446 -79.32692 7041 ft 280 kts 208°
2026-05-03 22:38 8.94737 -79.33615 6616 ft 278 kts 208°
2026-05-03 22:38 8.93041 -79.34538 6239 ft 276 kts 208°
2026-05-03 22:38 8.91352 -79.35461 5917 ft 276 kts 208°
2026-05-03 22:38 8.89660 -79.36387 5595 ft 277 kts 208°
2026-05-03 22:39 8.87971 -79.37313 5269 ft 277 kts 208°
2026-05-03 22:39 8.86396 -79.38418 4915 ft 276 kts 229°
2026-05-03 22:39 8.85495 -79.40082 4602 ft 268 kts 257°
2026-05-03 22:39 8.85441 -79.41913 4310 ft 259 kts 282°
2026-05-03 22:40 8.86059 -79.43539 4146 ft 243 kts 301°
2026-05-03 22:40 8.86914 -79.44933 4018 ft 225 kts 303°
2026-05-03 22:40 8.87737 -79.46222 3885 ft 212 kts 307°
2026-05-03 22:40 8.88919 -79.47078 3454 ft 209 kts 349°
2026-05-03 22:41 8.90322 -79.46946 3200 ft 200 kts 17°
2026-05-03 22:41 8.91609 -79.46507 2923 ft 191 kts 22°
2026-05-03 22:41 8.92805 -79.46007 2681 ft 182 kts 24°
2026-05-03 22:41 8.93925 -79.45452 2452 ft 178 kts 27°
2026-05-03 22:42 8.94643 -79.45055 2313 ft 178 kts 28°
2026-05-03 22:42 8.95732 -79.44435 2088 ft 181 kts 28°
2026-05-03 22:42 8.96830 -79.43805 1844 ft 179 kts 28°
2026-05-03 22:42 8.97884 -79.43201 1586 ft 170 kts 28°
2026-05-03 22:43 8.98879 -79.42631 1361 ft 161 kts 28°
2026-05-03 22:43 8.99840 -79.42081 1164 ft 159 kts 29°
2026-05-03 22:43 9.00809 -79.41525 953 ft 160 kts 29°
2026-05-03 22:43 9.01771 -79.40975 719 ft 159 kts 30°
2026-05-03 22:44 9.02736 -79.40422 518 ft 159 kts 29°
2026-05-03 22:44 9.03703 -79.39870 307 ft 160 kts 29°
2026-05-03 22:44 9.04674 -79.39315 87 ft 162 kts 30°
2026-05-03 22:44 9.05614 -79.38779 30 ft 135 kts 29°
2026-05-03 22:45 9.06208 -79.38438 30 ft 40 kts 30°
2026-05-03 22:45 9.06314 -79.38381 29 ft 14 kts 18°
2026-05-03 22:45 9.06412 -79.38377 29 ft 15 kts 359°
2026-05-03 22:45 9.06522 -79.38377 29 ft 17 kts
2026-05-03 22:46 9.06639 -79.38398 29 ft 17 kts 319°
2026-05-03 22:46 9.06661 -79.38453 29 ft 1 kts 236°
2026-05-03 22:46 9.06645 -79.38465 29 ft 6 kts 212°
2026-05-03 22:46 9.06581 -79.38501 29 ft 15 kts 208°
2026-05-03 22:47 9.06468 -79.38561 29 ft 22 kts 207°
2026-05-03 22:47 9.06331 -79.38631 29 ft 22 kts 206°
2026-05-03 22:47 9.06198 -79.38703 29 ft 21 kts 209°
2026-05-03 22:47 9.06078 -79.38772 29 ft 17 kts 210°
2026-05-03 22:48 9.06022 -79.38832 29 ft 8 kts 279°
2026-05-03 22:48 9.06041 -79.38879 29 ft 7 kts 297°
2026-05-03 22:48 9.06056 -79.38915 29 ft 5 kts 273°
2026-05-03 22:48 9.06045 -79.38944 29 ft 5 kts 232°
2026-05-03 22:49 9.06009 -79.38982 29 ft 10 kts 227°
2026-05-03 22:49 9.05949 -79.39040 29 ft 9 kts 214°
2026-05-03 22:49 9.05925 -79.39054 29 ft 0 kts 208°
2026-05-03 22:49 9.05924 -79.39055 29 ft 0 kts 208°
2026-05-03 22:50 9.05909 -79.39070 29 ft 3 kts 243°
2026-05-03 22:50 9.05911 -79.39075 29 ft 0 kts 292°
2026-05-03 22:50 9.05917 -79.39084 29 ft 5 kts 304°
2026-05-03 22:50 9.05952 -79.39115 29 ft 7 kts 322°
2026-05-03 22:51 9.05984 -79.39140 29 ft 4 kts 321°
2026-05-03 22:51 9.05990 -79.39145 29 ft 1 kts 323°
2026-05-03 22:51 9.05992 -79.39146 29 ft 0 kts 324°